Terminal Aerodrome Forecast
Issued by NWS

Home | Current Version | Previous Version | Graphics & Text | Print | Product List | Glossary On
Versions: 1 2 3 4 5 6 7 8 9 10 11 12 13 14 15 16 17 18
000
FTUS43 KABR 262200 AAA
TAFATY
TAF AMD
KATY 262213Z 2622/2718 27017KT P6SM SKC
     FM270300 31010KT P6SM FEW050
     FM271400 33016G24KT P6SM BKN050=

USA.gov is the U.S. government's official web portal to all federal, state and local government web resources and services.